Find Starlink 33963

NORAD ID: 63968 Int'l Des: 2025-099 Owner: SPXS Country: US Constellation: starlink operational
LEOCIRCULAR

Live Position

Loading 3D Globe...

About Starlink 33963

Description loading...

Upcoming Passes

Passes for default location (London). Set your location on the main map for personalized predictions.

Altitude History

Loading altitude history...

Two-Line Element Set

1 63968U 25099S 26104.35269933 .00009411 00000-0 35099-3 0 9994
2 63968 43.0012 334.5397 0001169 271.2738 88.7980 15.27587547 52799
Epoch: Apr 14, 2026 • Age: 23 hours

Current Status

Altitude 489.8 km
Velocity 7.62 km/s
Sub-Earth Point -28.50°S, 26.99°W
Launch Date May 13, 2025
Age 0.9 years
Type internet

Technical Details

Classification Payload
Mass 575.00 kg
Dry Mass 530.00 kg
Total Mass 575.00 kg
Length 0.30 m
Diameter 4.10 m
Span 29.00 m
Shape Box + pan
Manufacturer SPXS
Bus Type Starlink V2MO
Phase Status In Orbit
Owner/State SPXS/US

Most Searched